User: anonymous   Login
Location: Budapest
(47.4979°N, 19.0402°E)
Time: 18:21:41
(UTC+02:00)
Language:

ISS - Orbit

View from above orbital plane
View from above orbital plane
View from above satellite
View from above satellite

Ground track
Ground track

The orbit data is extracted from the following two-line orbital elements,

1 25544U 98067A   18199.64570141  .00016717  00000-0  10270-3 0  9014
2 25544  51.6366 221.9182 0004166 330.3167  29.7748 15.53967485  3401
Epoch (UTC): 18 July 2018 15:29:48
Eccentricity: 0.0004166
inclination: 51.6366°
perigee height: 402 km
apogee height: 408 km
right ascension of ascending node: 221.9182°
argument of perigee: 330.3167°
revolutions per day: 15.53967485
mean anomaly at epoch: 29.7748°
orbit number at epoch: 340

The dashed part of the orbit path shows where the satellite is in the earth's shadow,  

DLR